| time (UTC) | temp F | wind direction | speed MPH | gust MPH | rain 1hr in | rain 24hr in | rain mn in | humidity % | barometer mb |
| 20260509075132 | 51 | 4 | 2.0 | 3.0 | 0.00 | 0.01 | 0.00 | 92 | 1011.2 |
| 20260509074837 | 51 | 4 | 2.0 | 3.0 | 0.00 | 0.01 | 0.00 | 92 | 1011.3 |
| 20260509074639 | 51 | 4 | 2.0 | 4.0 | 0.00 | 0.01 | 0.00 | 92 | 1011.2 |
| 20260509074345 | 51 | 4 | 2.0 | 4.0 | 0.00 | 0.01 | 0.00 | 92 | 1011.2 |
| 20260509074209 | 51 | 4 | 2.0 | 4.0 | 0.00 | 0.01 | 0.00 | 92 | 1011.2 |
| 20260509073835 | 51 | 4 | 2.0 | 5.0 | 0.00 | 0.01 | 0.00 | 92 | 1011.3 |
| 20260509073636 | 51 | 4 | 3.0 | 5.0 | 0.00 | 0.01 | 0.00 | 92 | 1011.3 |
| 20260509073343 | 51 | 5 | 3.0 | 5.0 | 0.00 | 0.01 | 0.00 | 92 | 1011.2 |
| 20260509073145 | 51 | 5 | 3.0 | 5.0 | 0.00 | 0.01 | 0.00 | 92 | 1011.2 |
| 20260509072833 | 51 | 356 | 3.0 | 5.0 | 0.00 | 0.01 | 0.00 | 92 | 1011.1 |
| 20260509072636 | 51 | 356 | 3.0 | 4.0 | 0.00 | 0.01 | 0.00 | 92 | 1011.1 |
| 20260509072343 | 51 | 356 | 2.0 | 3.0 | 0.00 | 0.01 | 0.00 | 92 | 1011.1 |
| 20260509072141 | 51 | 356 | 2.0 | 3.0 | 0.00 | 0.01 | 0.00 | 92 | 1011.1 |
| 20260509071833 | 51 | 356 | 1.0 | 3.0 | 0.00 | 0.01 | 0.00 | 92 | 1011.0 |
| 20260509071630 | 51 | 356 | 2.0 | 3.0 | 0.00 | 0.01 | 0.00 | 92 | 1010.9 |
| 20260509071340 | 51 | 356 | 2.0 | 3.0 | 0.00 | 0.01 | 0.00 | 92 | 1010.9 |
| 20260509071158 | 51 | 356 | 3.0 | 3.0 | 0.00 | 0.01 | 0.00 | 92 | 1010.8 |
| 20260509070847 | 51 | 356 | 2.0 | 3.0 | 0.00 | 0.01 | 0.00 | 92 | 1010.8 |
| 20260509070645 | 51 | 356 | 1.0 | 3.0 | 0.00 | 0.01 | 0.00 | 92 | 1010.9 |
| 20260509070336 | 51 | 356 | 1.0 | 3.0 | 0.00 | 0.01 | 0.00 | 92 | 1010.8 |
| 20260509070134 | 51 | 356 | 1.0 | 4.0 | 0.00 | 0.01 | 0.00 | 91 | 1010.9 |
| 20260509065846 | 51 | 356 | 2.0 | 5.0 | 0.00 | 0.01 | 0.00 | 92 | 1010.9 |
| 20260509065644 | 51 | 356 | 2.0 | 5.0 | 0.00 | 0.01 | 0.00 | 91 | 1010.8 |
| 20260509065335 | 51 | 356 | 2.0 | 5.0 | 0.00 | 0.01 | 0.00 | 91 | 1010.8 |
| 20260509065154 | 51 | 356 | 3.0 | 5.0 | 0.00 | 0.01 | 0.00 | 91 | 1010.8 |
| 20260509064843 | 51 | 356 | 2.0 | 5.0 | 0.00 | 0.01 | 0.00 | 91 | 1010.8 |
| 20260509064642 | 51 | 356 | 3.0 | 5.0 | 0.00 | 0.01 | 0.00 | 91 | 1010.8 |
| 20260509064333 | 51 | 356 | 3.0 | 4.0 | 0.00 | 0.01 | 0.00 | 91 | 1010.8 |
| 20260509064132 | 51 | 356 | 2.0 | 5.0 | 0.00 | 0.01 | 0.00 | 91 | 1010.8 |
| 20260509063843 | 51 | 356 | 2.0 | 5.0 | 0.00 | 0.01 | 0.00 | 91 | 1010.8 |
| 20260509063638 | 51 | 356 | 2.0 | 5.0 | 0.00 | 0.01 | 0.00 | 91 | 1010.8 |
| 20260509063330 | 51 | 351 | 3.0 | 4.0 | 0.00 | 0.01 | 0.00 | 91 | 1010.8 |
| 20260509063147 | 51 | 351 | 3.0 | 4.0 | 0.00 | 0.01 | 0.00 | 91 | 1010.8 |
| 20260509062833 | 51 | 346 | 3.0 | 4.0 | 0.00 | 0.01 | 0.00 | 91 | 1011.0 |
| 20260509062635 | 51 | 277 | 2.0 | 3.0 | 0.00 | 0.01 | 0.00 | 91 | 1011.1 |
| 20260509062343 | 51 | 277 | 2.0 | 3.0 | 0.00 | 0.01 | 0.00 | 91 | 1011.2 |
| 20260509062144 | 51 | 277 | 2.0 | 3.0 | 0.00 | 0.01 | 0.00 | 91 | 1011.2 |
| 20260509061830 | 51 | 277 | 2.0 | 3.0 | 0.00 | 0.01 | 0.00 | 91 | 1011.2 |
| 20260509061653 | 51 | 276 | 2.0 | 3.0 | 0.00 | 0.01 | 0.00 | 91 | 1011.2 |
| 20260509061338 | 51 | 269 | 1.0 | 2.0 | 0.00 | 0.01 | 0.00 | 91 | 1011.4 |
| 20260509061201 | 51 | 269 | 2.0 | 3.0 | 0.00 | 0.01 | 0.00 | 91 | 1011.4 |
| 20260509060907 | 51 | 269 | 2.0 | 3.0 | 0.00 | 0.01 | 0.00 | 91 | 1011.4 |
| 20260509060645 | 51 | 269 | 2.0 | 3.0 | 0.00 | 0.01 | 0.00 | 91 | 1011.3 |
| 20260509060337 | 51 | 269 | 1.0 | 3.0 | 0.00 | 0.01 | 0.00 | 91 | 1011.4 |
| 20260509060134 | 51 | 269 | 1.0 | 2.0 | 0.00 | 0.01 | 0.00 | 90 | 1011.4 |
| 20260509055846 | 51 | 269 | 1.0 | 2.0 | 0.00 | 0.01 | 0.00 | 90 | 1011.4 |
| 20260509055645 | 51 | 269 | 1.0 | 2.0 | 0.00 | 0.01 | 0.00 | 90 | 1011.5 |
| 20260509055356 | 51 | 269 | 1.0 | 2.0 | 0.00 | 0.01 | 0.00 | 90 | 1011.6 |
| 20260509055153 | 51 | 269 | 1.0 | 2.0 | 0.00 | 0.01 | 0.00 | 90 | 1011.6 |
| 20260509054904 | 51 | 269 | 1.0 | 2.0 | 0.00 | 0.01 | 0.00 | 90 | 1011.6 |
| 20260509054703 | 51 | 269 | 1.0 | 2.0 | 0.00 | 0.01 | 0.00 | 90 | 1011.6 |
| 20260509054332 | 51 | 269 | 1.0 | 2.0 | 0.00 | 0.01 | 0.00 | 90 | 1011.6 |
| 20260509054130 | 51 | 269 | 0.0 | 0.0 | 0.00 | 0.01 | 0.00 | 90 | 1011.6 |
| 20260509053840 | 51 | 269 | 0.0 | 0.0 | 0.00 | 0.01 | 0.00 | 90 | 1011.6 |
| 20260509053639 | 51 | 269 | 0.0 | 0.0 | 0.00 | 0.01 | 0.00 | 90 | 1011.6 |
| 20260509053330 | 51 | 269 | 0.0 | 0.0 | 0.00 | 0.01 | 0.00 | 90 | 1011.7 |
| 20260509053130 | 51 | 269 | 0.0 | 2.0 | 0.00 | 0.01 | 0.00 | 90 | 1011.7 |
| 20260509052836 | 51 | 269 | 0.0 | 2.0 | 0.00 | 0.01 | 0.00 | 89 | 1011.9 |
| 20260509052637 | 51 | 269 | 0.0 | 2.0 | 0.00 | 0.01 | 0.00 | 89 | 1012.0 |
| 20260509052345 | 51 | 269 | 1.0 | 2.0 | 0.00 | 0.01 | 0.00 | 89 | 1012.0 |
| 20260509052148 | 51 | 269 | 0.0 | 0.0 | 0.00 | 0.01 | 0.00 | 89 | 1011.9 |
| 20260509051835 | 51 | 269 | 0.0 | 0.0 | 0.00 | 0.01 | 0.00 | 89 | 1011.8 |
| 20260509051638 | 51 | 269 | 0.0 | 0.0 | 0.00 | 0.01 | 0.00 | 89 | 1011.9 |
| 20260509051345 | 51 | 269 | 0.0 | 0.0 | 0.00 | 0.01 | 0.00 | 88 | 1011.8 |
| 20260509051209 | 51 | 269 | 0.0 | 0.0 | 0.00 | 0.01 | 0.00 | 88 | 1011.7 |
| 20260509050836 | 51 | 269 | 0.0 | 0.0 | 0.00 | 0.01 | 0.00 | 88 | 1011.7 |
| 20260509050658 | 51 | 269 | 0.0 | 0.0 | 0.00 | 0.01 | 0.00 | 88 | 1011.7 |
| 20260509050404 | 51 | 269 | 0.0 | 0.0 | 0.00 | 0.01 | 0.00 | 88 | 1011.7 |
| 20260509050142 | 51 | 269 | 0.0 | 1.0 | 0.00 | 0.01 | 0.00 | 88 | 1011.7 |
| 20260509045834 | 51 | 269 | 0.0 | 1.0 | 0.00 | 0.01 | 0.00 | 87 | 1011.7 |
| 20260509045631 | 51 | 269 | 0.0 | 1.0 | 0.00 | 0.01 | 0.00 | 87 | 1011.7 |
| 20260509045410 | 51 | 269 | 0.0 | 1.0 | 0.00 | 0.01 | 0.00 | 87 | 1011.7 |
| 20260509045146 | 51 | 269 | 0.0 | 0.0 | 0.00 | 0.01 | 0.00 | 87 | 1011.8 |
| 20260509044838 | 51 | 269 | 0.0 | 0.0 | 0.00 | 0.01 | 0.00 | 87 | 1011.8 |
| 20260509044635 | 51 | 269 | 0.0 | 0.0 | 0.00 | 0.01 | 0.00 | 87 | 1011.8 |
| 20260509044346 | 51 | 269 | 0.0 | 0.0 | 0.00 | 0.01 | 0.00 | 87 | 1011.9 |
| 20260509044143 | 51 | 269 | 0.0 | 0.0 | 0.00 | 0.01 | 0.00 | 87 | 1011.8 |
| 20260509043835 | 51 | 269 | 0.0 | 2.0 | 0.00 | 0.01 | 0.00 | 87 | 1011.9 |
| 20260509043634 | 51 | 269 | 0.0 | 2.0 | 0.00 | 0.01 | 0.00 | 87 | 1011.9 |
| 20260509043345 | 51 | 269 | 0.0 | 2.0 | 0.00 | 0.01 | 0.00 | 87 | 1011.9 |
| 20260509043142 | 51 | 269 | 1.0 | 2.0 | 0.00 | 0.01 | 0.00 | 87 | 1011.8 |
| 20260509042833 | 51 | 269 | 1.0 | 2.0 | 0.00 | 0.01 | 0.00 | 86 | 1011.8 |
| 20260509042630 | 51 | 269 | 0.0 | 1.0 | 0.00 | 0.01 | 0.00 | 86 | 1011.8 |
| 20260509042341 | 51 | 269 | 0.0 | 2.0 | 0.00 | 0.01 | 0.00 | 86 | 1011.8 |
| 20260509042139 | 51 | 269 | 0.0 | 2.0 | 0.00 | 0.01 | 0.00 | 86 | 1011.8 |
| 20260509041829 | 51 | 269 | 1.0 | 2.0 | 0.00 | 0.01 | 0.00 | 86 | 1011.7 |
| 20260509041648 | 51 | 269 | 1.0 | 2.0 | 0.00 | 0.01 | 0.00 | 86 | 1011.8 |
| 20260509041338 | 51 | 269 | 0.0 | 1.0 | 0.00 | 0.01 | 0.00 | 86 | 1011.7 |
| 20260509041135 | 51 | 269 | 0.0 | 1.0 | 0.00 | 0.01 | 0.00 | 86 | 1011.7 |
| 20260509040842 | 51 | 269 | 0.0 | 1.0 | 0.00 | 0.01 | 0.00 | 86 | 1011.7 |
| 20260509040643 | 51 | 269 | 0.0 | 1.0 | 0.00 | 0.01 | 0.00 | 85 | 1011.8 |
| 20260509040331 | 51 | 269 | 0.0 | 2.0 | 0.00 | 0.01 | 0.00 | 85 | 1011.8 |
| 20260509040154 | 51 | 269 | 0.0 | 2.0 | 0.00 | 0.01 | 0.00 | 85 | 1011.8 |
| 20260509035836 | 51 | 269 | 0.0 | 2.0 | 0.00 | 0.01 | 0.00 | 85 | 1012.0 |
| 20260509035637 | 52 | 269 | 1.0 | 2.0 | 0.00 | 0.01 | 0.00 | 85 | 1012.0 |
| 20260509035344 | 52 | 269 | 1.0 | 2.0 | 0.00 | 0.01 | 0.00 | 85 | 1011.9 |
| 20260509035144 | 52 | 269 | 1.0 | 1.0 | 0.00 | 0.01 | 0.00 | 85 | 1011.8 |
| 20260509034830 | 52 | 269 | 0.0 | 1.0 | 0.00 | 0.01 | 0.01 | 84 | 1011.8 |
| 20260509034632 | 52 | 269 | 1.0 | 1.0 | 0.00 | 0.01 | 0.01 | 84 | 1011.8 |
| 20260509034339 | 52 | 269 | 0.0 | 1.0 | 0.00 | 0.01 | 0.01 | 84 | 1011.8 |
| 20260509034142 | 52 | 269 | 0.0 | 1.0 | 0.00 | 0.01 | 0.01 | 84 | 1011.8 |
| 20260509033830 | 52 | 269 | 0.0 | 1.0 | 0.00 | 0.01 | 0.01 | 84 | 1011.8 |
| 20260509033632 | 52 | 269 | 0.0 | 1.0 | 0.00 | 0.01 | 0.01 | 84 | 1011.8 |
| 20260509033339 | 52 | 269 | 0.0 | 1.0 | 0.00 | 0.01 | 0.01 | 84 | 1011.9 |
| 20260509033142 | 52 | 269 | 0.0 | 0.0 | 0.00 | 0.01 | 0.01 | 84 | 1011.9 |
| 20260509032909 | 52 | 269 | 0.0 | 1.0 | 0.00 | 0.01 | 0.01 | 84 | 1011.9 |
| 20260509032645 | 52 | 269 | 0.0 | 1.0 | 0.00 | 0.01 | 0.01 | 84 | 1011.9 |
| 20260509032356 | 52 | 269 | 0.0 | 1.0 | 0.00 | 0.01 | 0.01 | 84 | 1012.0 |
| 20260509032153 | 52 | 269 | 0.0 | 2.0 | 0.00 | 0.01 | 0.01 | 84 | 1012.0 |
| 20260509031903 | 52 | 269 | 0.0 | 2.0 | 0.00 | 0.01 | 0.01 | 84 | 1012.0 |
| 20260509031640 | 52 | 269 | 0.0 | 2.0 | 0.00 | 0.01 | 0.01 | 84 | 1012.0 |
| 20260509031348 | 52 | 269 | 1.0 | 2.0 | 0.00 | 0.01 | 0.01 | 84 | 1012.0 |
| 20260509031207 | 52 | 269 | 1.0 | 2.0 | 0.00 | 0.01 | 0.01 | 84 | 1012.0 |
| 20260509030839 | 52 | 269 | 1.0 | 2.0 | 0.00 | 0.01 | 0.01 | 83 | 1012.0 |
| 20260509030658 | 52 | 269 | 0.0 | 1.0 | 0.00 | 0.01 | 0.01 | 83 | 1012.1 |
| 20260509030342 | 52 | 269 | 0.0 | 1.0 | 0.00 | 0.01 | 0.01 | 83 | 1012.1 |
| 20260509030204 | 52 | 269 | 0.0 | 1.0 | 0.00 | 0.01 | 0.01 | 83 | 1012.0 |
| 20260509025830 | 52 | 269 | 0.0 | 1.0 | 0.00 | 0.01 | 0.01 | 83 | 1012.0 |
| 20260509025633 | 52 | 269 | 0.0 | 1.0 | 0.00 | 0.01 | 0.01 | 83 | 1012.0 |
| 20260509025401 | 52 | 269 | 0.0 | 1.0 | 0.00 | 0.01 | 0.01 | 83 | 1012.1 |
| 20260509025142 | 52 | 269 | 1.0 | 1.0 | 0.00 | 0.01 | 0.01 | 83 | 1012.1 |
| 20260509024830 | 52 | 269 | 0.0 | 0.0 | 0.00 | 0.01 | 0.01 | 82 | 1012.0 |
| 20260509024631 | 52 | 269 | 0.0 | 0.0 | 0.00 | 0.01 | 0.01 | 82 | 1012.0 |
| 20260509024339 | 52 | 269 | 0.0 | 0.0 | 0.00 | 0.01 | 0.01 | 82 | 1011.9 |
| 20260509024138 | 52 | 269 | 0.0 | 0.0 | 0.00 | 0.01 | 0.01 | 82 | 1012.0 |
| 20260509023830 | 52 | 269 | 0.0 | 0.0 | 0.00 | 0.01 | 0.01 | 82 | 1012.0 |
| 20260509023648 | 52 | 269 | 0.0 | 0.0 | 0.00 | 0.01 | 0.01 | 82 | 1012.0 |
| 20260509023338 | 52 | 269 | 0.0 | 0.0 | 0.00 | 0.01 | 0.01 | 82 | 1012.0 |
| 20260509023137 | 52 | 269 | 0.0 | 0.0 | 0.00 | 0.01 | 0.01 | 82 | 1012.0 |
| 20260509022847 | 52 | 269 | 0.0 | 0.0 | 0.00 | 0.01 | 0.01 | 81 | 1011.9 |
| 20260509022645 | 52 | 269 | 0.0 | 0.0 | 0.00 | 0.01 | 0.01 | 81 | 1011.9 |
| 20260509022335 | 52 | 269 | 0.0 | 0.0 | 0.00 | 0.01 | 0.01 | 81 | 1011.8 |
| 20260509022133 | 52 | 269 | 0.0 | 0.0 | 0.00 | 0.01 | 0.01 | 81 | 1011.9 |
| 20260509021845 | 52 | 269 | 0.0 | 0.0 | 0.00 | 0.01 | 0.01 | 81 | 1011.9 |
| 20260509021643 | 52 | 269 | 0.0 | 0.0 | 0.00 | 0.01 | 0.01 | 81 | 1011.9 |
| 20260509021353 | 52 | 269 | 0.0 | 1.0 | 0.00 | 0.01 | 0.01 | 81 | 1011.9 |
| 20260509021130 | 52 | 269 | 0.0 | 2.0 | 0.00 | 0.01 | 0.01 | 81 | 1011.8 |
| 20260509020908 | 52 | 269 | 0.0 | 2.0 | 0.00 | 0.01 | 0.01 | 81 | 1011.7 |
| 20260509020646 | 52 | 269 | 0.0 | 2.0 | 0.00 | 0.01 | 0.01 | 82 | 1011.7 |
| 20260509020336 | 52 | 269 | 1.0 | 2.0 | 0.00 | 0.01 | 0.01 | 82 | 1011.7 |
| 20260509020155 | 52 | 269 | 0.0 | 1.0 | 0.00 | 0.01 | 0.01 | 82 | 1011.7 |
| 20260509015843 | 52 | 269 | 0.0 | 0.0 | 0.00 | 0.01 | 0.01 | 81 | 1011.6 |
| 20260509015647 | 52 | 269 | 0.0 | 0.0 | 0.00 | 0.01 | 0.01 | 81 | 1011.6 |
| 20260509015333 | 52 | 269 | 0.0 | 0.0 | 0.00 | 0.01 | 0.01 | 81 | 1011.5 |
| 20260509015134 | 52 | 269 | 0.0 | 0.0 | 0.00 | 0.01 | 0.01 | 81 | 1011.4 |
| 20260509014841 | 52 | 269 | 0.0 | 0.0 | 0.00 | 0.01 | 0.01 | 81 | 1011.4 |
| 20260509014643 | 52 | 269 | 0.0 | 0.0 | 0.00 | 0.01 | 0.01 | 81 | 1011.4 |
| 20260509014330 | 52 | 269 | 0.0 | 0.0 | 0.00 | 0.01 | 0.01 | 81 | 1011.4 |
| 20260509014131 | 52 | 269 | 0.0 | 0.0 | 0.00 | 0.01 | 0.01 | 81 | 1011.4 |
| 20260509013838 | 53 | 269 | 0.0 | 0.0 | 0.00 | 0.01 | 0.01 | 81 | 1011.3 |
| 20260509013641 | 53 | 269 | 0.0 | 0.0 | 0.00 | 0.01 | 0.01 | 81 | 1011.3 |
| 20260509013349 | 53 | 269 | 0.0 | 0.0 | 0.00 | 0.01 | 0.01 | 80 | 1011.2 |
| 20260509013131 | 53 | 269 | 0.0 | 0.0 | 0.00 | 0.01 | 0.01 | 80 | 1011.2 |
| 20260509012838 | 52 | 269 | 0.0 | 0.0 | 0.00 | 0.01 | 0.01 | 80 | 1011.2 |
| 20260509012641 | 53 | 269 | 0.0 | 0.0 | 0.00 | 0.01 | 0.01 | 80 | 1011.1 |
| 20260509012349 | 53 | 269 | 0.0 | 0.0 | 0.00 | 0.01 | 0.01 | 80 | 1011.0 |
| 20260509012131 | 53 | 269 | 0.0 | 0.0 | 0.00 | 0.01 | 0.01 | 79 | 1010.9 |
| 20260509011839 | 53 | 269 | 0.0 | 0.0 | 0.00 | 0.01 | 0.01 | 79 | 1011.0 |
| 20260509011642 | 53 | 269 | 0.0 | 0.0 | 0.00 | 0.01 | 0.01 | 79 | 1010.9 |
| 20260509011348 | 53 | 269 | 0.0 | 0.0 | 0.00 | 0.01 | 0.01 | 79 | 1010.9 |
| 20260509011130 | 53 | 269 | 0.0 | 0.0 | 0.00 | 0.01 | 0.01 | 79 | 1010.9 |
| 20260509010837 | 53 | 269 | 0.0 | 0.0 | 0.00 | 0.01 | 0.01 | 78 | 1010.9 |
| 20260509010635 | 53 | 269 | 0.0 | 0.0 | 0.00 | 0.01 | 0.01 | 78 | 1010.8 |
| 20260509010346 | 53 | 269 | 0.0 | 0.0 | 0.00 | 0.01 | 0.01 | 78 | 1010.7 |
| 20260509010143 | 53 | 269 | 0.0 | 0.0 | 0.00 | 0.01 | 0.01 | 77 | 1010.7 |
| 20260509005833 | 53 | 269 | 0.0 | 0.0 | 0.00 | 0.01 | 0.01 | 77 | 1010.7 |
| 20260509005630 | 53 | 269 | 0.0 | 0.0 | 0.00 | 0.01 | 0.01 | 77 | 1010.7 |
| 20260509005341 | 54 | 269 | 0.0 | 0.0 | 0.00 | 0.01 | 0.01 | 76 | 1010.7 |
| 20260509005201 | 54 | 269 | 0.0 | 0.0 | 0.00 | 0.01 | 0.01 | 76 | 1010.6 |
| 20260509004829 | 54 | 269 | 0.0 | 0.0 | 0.00 | 0.01 | 0.01 | 76 | 1010.4 |
| 20260509004648 | 54 | 269 | 0.0 | 0.0 | 0.00 | 0.01 | 0.01 | 76 | 1010.4 |
| 20260509004337 | 54 | 269 | 0.0 | 0.0 | 0.00 | 0.01 | 0.01 | 76 | 1010.4 |
| 20260509004135 | 54 | 269 | 0.0 | 0.0 | 0.00 | 0.01 | 0.01 | 76 | 1010.4 |
| 20260509003846 | 54 | 269 | 0.0 | 0.0 | 0.00 | 0.01 | 0.01 | 75 | 1010.4 |
| 20260509003646 | 54 | 269 | 0.0 | 0.0 | 0.00 | 0.01 | 0.01 | 75 | 1010.4 |
| 20260509003337 | 55 | 269 | 0.0 | 0.0 | 0.00 | 0.01 | 0.01 | 74 | 1010.4 |
| 20260509003135 | 55 | 269 | 0.0 | 0.0 | 0.00 | 0.01 | 0.01 | 74 | 1010.3 |
| 20260509002846 | 55 | 269 | 0.0 | 0.0 | 0.00 | 0.01 | 0.01 | 73 | 1010.3 |
| 20260509002645 | 55 | 269 | 0.0 | 0.0 | 0.00 | 0.01 | 0.01 | 73 | 1010.2 |
| 20260509002355 | 55 | 269 | 0.0 | 0.0 | 0.00 | 0.01 | 0.01 | 73 | 1010.1 |
| 20260509002133 | 55 | 269 | 0.0 | 0.0 | 0.00 | 0.01 | 0.01 | 72 | 1010.1 |
| 20260509001859 | 55 | 269 | 0.0 | 0.0 | 0.00 | 0.01 | 0.01 | 72 | 1010.2 |
| 20260509001639 | 55 | 269 | 0.0 | 0.0 | 0.00 | 0.01 | 0.01 | 72 | 1010.2 |
| 20260509001345 | 55 | 269 | 0.0 | 0.0 | 0.00 | 0.01 | 0.01 | 72 | 1010.2 |
| 20260509001146 | 56 | 269 | 0.0 | 0.0 | 0.00 | 0.01 | 0.01 | 72 | 1010.3 |
| 20260509000833 | 56 | 269 | 0.0 | 0.0 | 0.00 | 0.01 | 0.01 | 71 | 1010.2 |
| 20260509000635 | 56 | 269 | 0.0 | 0.0 | 0.00 | 0.01 | 0.01 | 71 | 1010.2 |
| 20260509000342 | 56 | 269 | 0.0 | 0.0 | 0.00 | 0.01 | 0.01 | 70 | 1010.2 |
| 20260509000144 | 56 | 269 | 0.0 | 0.0 | 0.00 | 0.01 | 0.01 | 70 | 1010.2 |
| 20260508235851 | 56 | 269 | 0.0 | 0.0 | 0.00 | 0.01 | 0.01 | 70 | 1010.3 |
| 20260508235632 | 56 | 269 | 0.0 | 0.0 | 0.00 | 0.01 | 0.01 | 69 | 1010.3 |
| 20260508235339 | 56 | 269 | 0.0 | 0.0 | 0.00 | 0.01 | 0.01 | 69 | 1010.3 |
| 20260508235137 | 56 | 269 | 0.0 | 0.0 | 0.00 | 0.01 | 0.01 | 68 | 1010.3 |
| 20260508234847 | 56 | 269 | 0.0 | 0.0 | 0.00 | 0.01 | 0.01 | 67 | 1010.3 |
| 20260508234645 | 56 | 269 | 0.0 | 0.0 | 0.00 | 0.01 | 0.01 | 67 | 1010.3 |
| 20260508234335 | 56 | 269 | 0.0 | 0.0 | 0.00 | 0.01 | 0.01 | 67 | 1010.3 |
| 20260508234133 | 57 | 269 | 0.0 | 0.0 | 0.00 | 0.01 | 0.01 | 67 | 1010.3 |
| 20260508233845 | 57 | 269 | 0.0 | 0.0 | 0.00 | 0.01 | 0.01 | 66 | 1010.3 |
| 20260508233642 | 57 | 269 | 0.0 | 1.0 | 0.00 | 0.01 | 0.01 | 66 | 1010.3 |
| 20260508233333 | 57 | 269 | 0.0 | 1.0 | 0.00 | 0.01 | 0.01 | 66 | 1010.3 |
| 20260508233132 | 57 | 269 | 0.0 | 1.0 | 0.00 | 0.01 | 0.01 | 66 | 1010.3 |
| 20260508232842 | 57 | 269 | 0.0 | 1.0 | 0.00 | 0.01 | 0.01 | 65 | 1010.2 |
| 20260508232641 | 57 | 269 | 0.0 | 1.0 | 0.00 | 0.01 | 0.01 | 64 | 1010.2 |
| 20260508232332 | 57 | 269 | 0.0 | 2.0 | 0.00 | 0.01 | 0.01 | 63 | 1010.2 |
| 20260508232218 | 57 | 269 | 0.0 | 2.0 | 0.00 | 0.01 | 0.01 | 63 | 1010.2 |
| 20260508231908 | 58 | 269 | 0.0 | 2.0 | 0.00 | 0.01 | 0.01 | 63 | 1010.1 |
| 20260508231646 | 58 | 269 | 1.0 | 2.0 | 0.00 | 0.01 | 0.01 | 62 | 1010.1 |
| 20260508231356 | 58 | 269 | 0.0 | 1.0 | 0.00 | 0.01 | 0.01 | 62 | 1010.1 |
| 20260508231134 | 58 | 269 | 0.0 | 2.0 | 0.00 | 0.01 | 0.01 | 62 | 1010.1 |
| 20260508230840 | 58 | 269 | 0.0 | 2.0 | 0.00 | 0.01 | 0.01 | 62 | 1010.2 |
| 20260508230642 | 58 | 269 | 0.0 | 2.0 | 0.00 | 0.01 | 0.01 | 62 | 1010.2 |
| 20260508230347 | 58 | 269 | 1.0 | 2.0 | 0.00 | 0.01 | 0.01 | 61 | 1010.2 |
| 20260508230149 | 58 | 269 | 0.0 | 2.0 | 0.00 | 0.01 | 0.01 | 63 | 1010.1 |
| 20260508225835 | 58 | 269 | 0.0 | 2.0 | 0.00 | 0.01 | 0.01 | 62 | 1010.1 |
| 20260508225637 | 58 | 269 | 0.0 | 3.0 | 0.00 | 0.01 | 0.01 | 62 | 1010.1 |
| 20260508225404 | 58 | 269 | 1.0 | 3.0 | 0.00 | 0.01 | 0.01 | 61 | 1010.0 |
| 20260508225145 | 58 | 269 | 1.0 | 3.0 | 0.00 | 0.01 | 0.01 | 62 | 1010.0 |
| 20260508224833 | 58 | 269 | 1.0 | 3.0 | 0.00 | 0.01 | 0.01 | 62 | 1010.1 |
| 20260508224656 | 58 | 269 | 0.0 | 2.0 | 0.00 | 0.01 | 0.01 | 62 | 1010.0 |
| 20260508224402 | 58 | 269 | 1.0 | 2.0 | 0.00 | 0.01 | 0.01 | 63 | 1010.1 |
| 20260508224139 | 58 | 269 | 0.0 | 1.0 | 0.00 | 0.01 | 0.01 | 63 | 1010.0 |
| 20260508223831 | 58 | 269 | 0.0 | 4.0 | 0.00 | 0.01 | 0.01 | 64 | 1010.1 |
| 20260508223647 | 58 | 269 | 0.0 | 4.0 | 0.00 | 0.01 | 0.01 | 63 | 1010.1 |
| 20260508223358 | 58 | 269 | 0.0 | 4.0 | 0.00 | 0.01 | 0.01 | 63 | 1010.1 |
| 20260508223154 | 58 | 269 | 2.0 | 4.0 | 0.00 | 0.01 | 0.01 | 63 | 1010.1 |
| 20260508222906 | 58 | 306 | 0.0 | 3.0 | 0.00 | 0.01 | 0.01 | 63 | 1010.2 |
| 20260508222642 | 58 | 306 | 1.0 | 3.0 | 0.00 | 0.01 | 0.01 | 63 | 1010.2 |
| 20260508222333 | 58 | 306 | 0.0 | 2.0 | 0.00 | 0.01 | 0.01 | 64 | 1010.1 |
| 20260508222131 | 58 | 306 | 1.0 | 2.0 | 0.00 | 0.01 | 0.01 | 63 | 1010.1 |
| 20260508221842 | 58 | 306 | 1.0 | 3.0 | 0.00 | 0.01 | 0.01 | 64 | 1010.1 |
| 20260508221639 | 58 | 360 | 0.0 | 3.0 | 0.00 | 0.01 | 0.01 | 63 | 1010.1 |
| 20260508221403 | 58 | 360 | 1.0 | 4.0 | 0.00 | 0.01 | 0.01 | 64 | 1010.1 |
| 20260508221143 | 58 | 360 | 1.0 | 4.0 | 0.00 | 0.01 | 0.01 | 64 | 1010.1 |
| 20260508220849 | 58 | 360 | 1.0 | 4.0 | 0.00 | 0.01 | 0.01 | 64 | 1010.0 |
| 20260508220652 | 59 | 360 | 2.0 | 4.0 | 0.00 | 0.01 | 0.01 | 62 | 1010.1 |
| 20260508220338 | 59 | 351 | 1.0 | 4.0 | 0.00 | 0.01 | 0.01 | 64 | 1010.1 |
| 20260508220140 | 59 | 351 | 1.0 | 4.0 | 0.00 | 0.01 | 0.01 | 64 | 1010.0 |
| 20260508215847 | 59 | 351 | 1.0 | 4.0 | 0.00 | 0.01 | 0.01 | 64 | 1010.0 |
| 20260508215630 | 59 | 351 | 1.0 | 6.0 | 0.00 | 0.01 | 0.01 | 64 | 1010.0 |
| 20260508215356 | 58 | 10 | 2.0 | 6.0 | 0.00 | 0.01 | 0.01 | 64 | 1010.0 |
| 20260508215130 | 58 | 9 | 2.0 | 6.0 | 0.00 | 0.01 | 0.01 | 64 | 1010.0 |
| 20260508214837 | 58 | 9 | 2.0 | 5.0 | 0.00 | 0.01 | 0.01 | 64 | 1010.0 |
| 20260508214638 | 58 | 296 | 1.0 | 3.0 | 0.00 | 0.01 | 0.01 | 64 | 1010.0 |
| 20260508214346 | 58 | 296 | 1.0 | 3.0 | 0.00 | 0.01 | 0.01 | 63 | 1010.1 |
| 20260508214205 | 58 | 1 | 1.0 | 5.0 | 0.00 | 0.01 | 0.01 | 65 | 1010.1 |
| 20260508213855 | 58 | 1 | 1.0 | 6.0 | 0.00 | 0.01 | 0.01 | 66 | 1010.1 |
| 20260508213653 | 58 | 1 | 1.0 | 6.0 | 0.00 | 0.01 | 0.01 | 65 | 1010.1 |
| 20260508213410 | 58 | 1 | 3.0 | 6.0 | 0.00 | 0.01 | 0.01 | 64 | 1010.2 |
| 20260508213147 | 58 | 360 | 2.0 | 8.0 | 0.00 | 0.01 | 0.01 | 65 | 1010.2 |
| 20260508212857 | 58 | 2 | 2.0 | 8.0 | 0.00 | 0.01 | 0.01 | 64 | 1010.2 |
| 20260508212636 | 58 | 6 | 2.0 | 9.0 | 0.00 | 0.01 | 0.01 | 64 | 1010.1 |
| 20260508212346 | 58 | 351 | 2.0 | 9.0 | 0.00 | 0.01 | 0.01 | 67 | 1010.1 |
| 20260508212145 | 58 | 356 | 1.0 | 9.0 | 0.00 | 0.01 | 0.01 | 66 | 1010.1 |
| 20260508211835 | 58 | 16 | 5.0 | 10.0 | 0.00 | 0.01 | 0.01 | 66 | 1010.1 |
| 20260508211632 | 58 | 24 | 2.0 | 10.0 | 0.00 | 0.01 | 0.01 | 68 | 1010.1 |
| 20260508211337 | 58 | 15 | 2.0 | 10.0 | 0.00 | 0.01 | 0.01 | 69 | 1010.2 |
| 20260508211159 | 58 | 360 | 5.0 | 10.0 | 0.00 | 0.01 | 0.01 | 67 | 1010.2 |
| 20260508210845 | 58 | 346 | 4.0 | 6.0 | 0.00 | 0.01 | 0.01 | 68 | 1010.3 |
| 20260508210646 | 58 | 322 | 2.0 | 6.0 | 0.00 | 0.01 | 0.01 | 70 | 1010.3 |
| 20260508210334 | 57 | 351 | 2.0 | 5.0 | 0.00 | 0.01 | 0.01 | 70 | 1010.4 |
| 20260508210138 | 57 | 360 | 1.0 | 4.0 | 0.00 | 0.01 | 0.01 | 73 | 1010.4 |
| 20260508205905 | 57 | 356 | 2.0 | 9.0 | 0.00 | 0.01 | 0.01 | 72 | 1010.5 |
| 20260508205645 | 56 | 356 | 0.0 | 9.0 | 0.00 | 0.01 | 0.01 | 71 | 1010.6 |
| 20260508205351 | 56 | 356 | 1.0 | 9.0 | 0.00 | 0.01 | 0.01 | 70 | 1010.6 |
| 20260508205210 | 56 | 356 | 2.0 | 9.0 | 0.00 | 0.01 | 0.01 | 69 | 1010.6 |
| 20260508204859 | 57 | 356 | 3.0 | 6.0 | 0.00 | 0.01 | 0.01 | 67 | 1010.6 |
| 20260508204656 | 57 | 32 | 3.0 | 6.0 | 0.00 | 0.01 | 0.01 | 68 | 1010.6 |
| 20260508204406 | 57 | 360 | 1.0 | 5.0 | 0.00 | 0.01 | 0.01 | 66 | 1010.7 |
| 20260508204143 | 57 | 360 | 2.0 | 6.0 | 0.00 | 0.01 | 0.01 | 67 | 1010.6 |
| 20260508203833 | 58 | 14 | 1.0 | 6.0 | 0.00 | 0.01 | 0.01 | 66 | 1010.6 |
| 20260508203631 | 58 | 14 | 1.0 | 6.0 | 0.00 | 0.01 | 0.01 | 65 | 1010.6 |
| 20260508203341 | 58 | 346 | 1.0 | 4.0 | 0.00 | 0.01 | 0.01 | 64 | 1010.5 |
| 20260508203138 | 58 | 346 | 1.0 | 4.0 | 0.00 | 0.01 | 0.01 | 63 | 1010.5 |
| 20260508202830 | 58 | 346 | 1.0 | 5.0 | 0.00 | 0.01 | 0.01 | 61 | 1010.4 |
| 20260508202648 | 58 | 346 | 1.0 | 5.0 | 0.00 | 0.01 | 0.01 | 62 | 1010.4 |
| 20260508202358 | 58 | 341 | 1.0 | 5.0 | 0.00 | 0.01 | 0.01 | 62 | 1010.4 |
| 20260508202136 | 58 | 296 | 1.0 | 5.0 | 0.00 | 0.01 | 0.01 | 61 | 1010.4 |
| 20260508201842 | 58 | 254 | 2.0 | 5.0 | 0.00 | 0.01 | 0.01 | 61 | 1010.3 |
| 20260508201645 | 58 | 270 | 2.0 | 8.0 | 0.00 | 0.01 | 0.01 | 61 | 1010.3 |
| 20260508201409 | 58 | 4 | 3.0 | 8.0 | 0.00 | 0.01 | 0.01 | 61 | 1010.3 |
| 20260508201149 | 58 | 346 | 2.0 | 8.0 | 0.00 | 0.01 | 0.01 | 60 | 1010.2 |
| 20260508200856 | 58 | 11 | 3.0 | 9.0 | 0.00 | 0.01 | 0.01 | 60 | 1010.2 |
| 20260508200637 | 58 | 1 | 3.0 | 9.0 | 0.00 | 0.01 | 0.01 | 60 | 1010.1 |
| 20260508200344 | 58 | 8 | 4.0 | 11.0 | 0.00 | 0.01 | 0.01 | 59 | 1010.2 |
| 20260508200146 | 58 | 356 | 4.0 | 11.0 | 0.00 | 0.01 | 0.01 | 59 | 1010.1 |
| 20260508195833 | 58 | 14 | 6.0 | 11.0 | 0.00 | 0.01 | 0.01 | 58 | 1010.1 |
| 20260508195636 | 59 | 351 | 4.0 | 11.0 | 0.00 | 0.01 | 0.01 | 59 | 1010.1 |
| 20260508195343 | 59 | 6 | 4.0 | 8.0 | 0.00 | 0.01 | 0.01 | 58 | 1010.1 |
| 20260508195203 | 59 | 356 | 4.0 | 8.0 | 0.00 | 0.01 | 0.01 | 57 | 1010.1 |
| 20260508194833 | 59 | 7 | 3.0 | 11.0 | 0.00 | 0.01 | 0.01 | 58 | 1010.1 |
| 20260508194630 | 59 | 356 | 4.0 | 11.0 | 0.00 | 0.01 | 0.01 | 56 | 1010.1 |
| 20260508194341 | 60 | 8 | 6.0 | 11.0 | 0.00 | 0.01 | 0.01 | 55 | 1010.1 |
| 20260508194138 | 61 | 7 | 2.0 | 8.0 | 0.00 | 0.01 | 0.01 | 55 | 1010.1 |
| 20260508193848 | 61 | 356 | 4.0 | 11.0 | 0.00 | 0.01 | 0.01 | 54 | 1010.1 |
| 20260508193646 | 61 | 346 | 3.0 | 11.0 | 0.00 | 0.01 | 0.01 | 54 | 1010.1 |
| 20260508193336 | 62 | 346 | 4.0 | 11.0 | 0.00 | 0.01 | 0.01 | 57 | 1010.1 |
| 20260508193134 | 62 | 356 | 5.0 | 11.0 | 0.00 | 0.01 | 0.01 | 55 | 1010.2 |
| 20260508192846 | 61 | 16 | 5.0 | 11.0 | 0.00 | 0.01 | 0.01 | 58 | 1010.1 |
| 20260508192703 | 61 | 8 | 4.0 | 11.0 | 0.00 | 0.01 | 0.01 | 61 | 1010.0 |
| 20260508192332 | 60 | 23 | 4.0 | 12.0 | 0.00 | 0.01 | 0.01 | 60 | 1010.2 |
| 20260508192130 | 60 | 15 | 5.0 | 12.0 | 0.00 | 0.01 | 0.01 | 57 | 1010.3 |
| 20260508191842 | 60 | 351 | 7.0 | 12.0 | 0.00 | 0.01 | 0.01 | 60 | 1010.3 |
| 20260508191639 | 60 | 2 | 4.0 | 10.0 | 0.00 | 0.01 | 0.01 | 60 | 1010.3 |
| 20260508191347 | 60 | 24 | 4.0 | 10.0 | 0.00 | 0.01 | 0.01 | 59 | 1010.3 |
| 20260508191144 | 60 | 17 | 5.0 | 10.0 | 0.00 | 0.01 | 0.01 | 57 | 1010.3 |
| 20260508190834 | 60 | 346 | 4.0 | 11.0 | 0.00 | 0.01 | 0.01 | 55 | 1010.3 |
| 20260508190651 | 60 | 16 | 3.0 | 11.0 | 0.00 | 0.01 | 0.01 | 57 | 1010.3 |
| 20260508190337 | 59 | 29 | 5.0 | 13.0 | 0.00 | 0.01 | 0.01 | 54 | 1010.3 |
| 20260508190138 | 59 | 6 | 6.0 | 13.0 | 0.00 | 0.01 | 0.01 | 54 | 1010.3 |
| 20260508185906 | 59 | 346 | 5.0 | 13.0 | 0.00 | 0.01 | 0.01 | 54 | 1010.3 |
| 20260508185647 | 59 | 10 | 6.0 | 13.0 | 0.00 | 0.01 | 0.01 | 53 | 1010.4 |
| 20260508185336 | 59 | 8 | 4.0 | 9.0 | 0.00 | 0.01 | 0.01 | 54 | 1010.5 |
| 20260508185139 | 59 | 351 | 4.0 | 9.0 | 0.00 | 0.01 | 0.01 | 53 | 1010.5 |
| 20260508184846 | 59 | 335 | 1.0 | 9.0 | 0.00 | 0.01 | 0.01 | 56 | 1010.5 |
| 20260508184648 | 59 | 335 | 2.0 | 9.0 | 0.00 | 0.01 | 0.01 | 54 | 1010.5 |
| 20260508184355 | 59 | 25 | 4.0 | 9.0 | 0.00 | 0.01 | 0.01 | 52 | 1010.5 |
| 20260508184130 | 59 | 56 | 4.0 | 9.0 | 0.00 | 0.01 | 0.01 | 53 | 1010.5 |
| 20260508183836 | 59 | 18 | 2.0 | 9.0 | 0.00 | 0.01 | 0.01 | 53 | 1010.4 |
| 20260508183632 | 59 | 351 | 2.0 | 9.0 | 0.00 | 0.01 | 0.01 | 54 | 1010.5 |
| 20260508183342 | 58 | 233 | 3.0 | 9.0 | 0.00 | 0.01 | 0.01 | 54 | 1010.4 |
| 20260508183140 | 58 | 254 | 2.0 | 9.0 | 0.00 | 0.01 | 0.01 | 55 | 1010.5 |
| 20260508182850 | 58 | 253 | 2.0 | 9.0 | 0.00 | 0.01 | 0.01 | 53 | 1010.5 |
| 20260508182709 | 58 | 284 | 2.0 | 10.0 | 0.00 | 0.01 | 0.01 | 53 | 1010.4 |
| 20260508182338 | 58 | 233 | 3.0 | 13.0 | 0.00 | 0.01 | 0.01 | 54 | 1010.5 |
| 20260508182136 | 58 | 310 | 3.0 | 17.0 | 0.00 | 0.01 | 0.01 | 53 | 1010.4 |
| 20260508181845 | 59 | 12 | 4.0 | 17.0 | 0.00 | 0.01 | 0.01 | 53 | 1010.4 |
| 20260508181642 | 59 | 245 | 4.0 | 17.0 | 0.00 | 0.01 | 0.01 | 51 | 1010.4 |
| 20260508181330 | 59 | 312 | 5.0 | 17.0 | 0.00 | 0.01 | 0.01 | 51 | 1010.4 |
| 20260508181147 | 59 | 295 | 4.0 | 17.0 | 0.00 | 0.01 | 0.01 | 51 | 1010.4 |
| 20260508180837 | 60 | 287 | 5.0 | 12.0 | 0.00 | 0.01 | 0.01 | 48 | 1010.3 |
| 20260508180635 | 60 | 41 | 3.0 | 11.0 | 0.00 | 0.01 | 0.01 | 49 | 1010.1 |
| 20260508180345 | 60 | 237 | 5.0 | 10.0 | 0.00 | 0.01 | 0.01 | 49 | 1010.2 |
| 20260508180142 | 61 | 7 | 4.0 | 10.0 | 0.00 | 0.01 | 0.01 | 49 | 1010.1 |
| 20260508175832 | 61 | 306 | 3.0 | 9.0 | 0.00 | 0.01 | 0.01 | 49 | 1010.0 |
| 20260508175630 | 61 | 256 | 5.0 | 9.0 | 0.00 | 0.01 | 0.01 | 48 | 1010.0 |
| 20260508175342 | 61 | 252 | 4.0 | 15.0 | 0.00 | 0.01 | 0.01 | 51 | 1010.0 |
| 20260508175140 | 61 | 284 | 4.0 | 18.0 | 0.00 | 0.01 | 0.01 | 49 | 1010.0 |
| 20260508174907 | 61 | 330 | 5.0 | 20.0 | 0.00 | 0.01 | 0.01 | 51 | 1010.1 |
| 20260508174647 | 61 | 308 | 8.0 | 20.0 | 0.00 | 0.01 | 0.01 | 48 | 1010.2 |
| 20260508174333 | 61 | 219 | 10.0 | 20.0 | 0.00 | 0.01 | 0.01 | 48 | 1010.2 |
| 20260508174156 | 60 | 202 | 7.0 | 16.0 | 0.00 | 0.01 | 0.01 | 50 | 1010.2 |
| 20260508173843 | 60 | 293 | 4.0 | 23.0 | 0.00 | 0.01 | 0.01 | 50 | 1010.1 |
| 20260508173645 | 59 | 333 | 6.0 | 23.0 | 0.00 | 0.01 | 0.01 | 50 | 1010.2 |
| 20260508173353 | 59 | 246 | 9.0 | 23.0 | 0.00 | 0.01 | 0.01 | 49 | 1010.3 |
| 20260508173135 | 59 | 244 | 9.0 | 23.0 | 0.00 | 0.01 | 0.01 | 49 | 1010.3 |
| 20260508172840 | 59 | 262 | 9.0 | 18.0 | 0.00 | 0.01 | 0.01 | 50 | 1010.3 |
| 20260508172637 | 58 | 231 | 3.0 | 14.0 | 0.00 | 0.01 | 0.01 | 51 | 1010.3 |
| 20260508172347 | 58 | 22 | 4.0 | 14.0 | 0.00 | 0.01 | 0.01 | 50 | 1010.3 |
| 20260508172146 | 58 | 241 | 5.0 | 14.0 | 0.00 | 0.01 | 0.01 | 50 | 1010.4 |
| 20260508171836 | 59 | 256 | 5.0 | 14.0 | 0.00 | 0.01 | 0.01 | 50 | 1010.3 |
| 20260508171635 | 59 | 261 | 7.0 | 14.0 | 0.00 | 0.01 | 0.01 | 49 | 1010.3 |
| 20260508171404 | 59 | 239 | 5.0 | 14.0 | 0.00 | 0.01 | 0.01 | 50 | 1010.2 |
| 20260508171141 | 60 | 216 | 7.0 | 14.0 | 0.00 | 0.01 | 0.01 | 50 | 1010.2 |
| 20260508170831 | 60 | 323 | 5.0 | 13.0 | 0.00 | 0.01 | 0.01 | 50 | 1010.2 |
| 20260508170649 | 60 | 28 | 3.0 | 11.0 | 0.00 | 0.01 | 0.01 | 50 | 1010.3 |
| 20260508170338 | 59 | 297 | 4.0 | 17.0 | 0.00 | 0.01 | 0.01 | 51 | 1010.3 |
| 20260508170136 | 59 | 279 | 3.0 | 17.0 | 0.00 | 0.01 | 0.01 | 52 | 1010.4 |
| 20260508165846 | 59 | 241 | 5.0 | 17.0 | 0.00 | 0.01 | 0.01 | 49 | 1010.4 |
| 20260508165644 | 59 | 302 | 4.0 | 14.0 | 0.00 | 0.01 | 0.01 | 52 | 1010.5 |
| 20260508165335 | 59 | 239 | 6.0 | 14.0 | 0.00 | 0.01 | 0.01 | 53 | 1010.5 |
| 20260508165154 | 59 | 316 | 5.0 | 17.0 | 0.00 | 0.01 | 0.01 | 52 | 1010.5 |
| 20260508164905 | 58 | 248 | 7.0 | 20.0 | 0.00 | 0.01 | 0.01 | 52 | 1010.6 |
| 20260508164703 | 58 | 224 | 5.0 | 20.0 | 0.00 | 0.01 | 0.01 | 53 | 1010.5 |
| 20260508164331 | 58 | 257 | 11.0 | 20.0 | 0.00 | 0.01 | 0.01 | 53 | 1010.7 |
| 20260508164154 | 58 | 269 | 7.0 | 10.0 | 0.00 | 0.01 | 0.01 | 54 | 1010.5 |
| 20260508163840 | 58 | 210 | 4.0 | 12.0 | 0.00 | 0.01 | 0.01 | 54 | 1010.6 |
| 20260508163643 | 58 | 252 | 6.0 | 20.0 | 0.00 | 0.01 | 0.01 | 53 | 1010.6 |
| 20260508163330 | 58 | 225 | 6.0 | 20.0 | 0.00 | 0.01 | 0.01 | 52 | 1010.6 |
| 20260508163133 | 58 | 279 | 6.0 | 20.0 | 0.00 | 0.01 | 0.01 | 53 | 1010.6 |
| 20260508162840 | 58 | 268 | 10.0 | 20.0 | 0.00 | 0.01 | 0.01 | 53 | 1010.7 |
| 20260508162641 | 57 | 254 | 7.0 | 16.0 | 0.00 | 0.01 | 0.01 | 53 | 1010.8 |
| 20260508162347 | 57 | 266 | 9.0 | 17.0 | 0.00 | 0.01 | 0.01 | 52 | 1010.8 |
| 20260508162149 | 57 | 227 | 10.0 | 17.0 | 0.00 | 0.01 | 0.01 | 53 | 1010.9 |
| 20260508161835 | 57 | 244 | 10.0 | 17.0 | 0.00 | 0.01 | 0.01 | 52 | 1011.0 |
| 20260508161637 | 57 | 225 | 11.0 | 17.0 | 0.00 | 0.01 | 0.01 | 53 | 1010.9 |
| 20260508161403 | 58 | 282 | 8.0 | 16.0 | 0.01 | 0.01 | 0.01 | 52 | 1010.9 |
| 20260508161201 | 58 | 264 | 5.0 | 15.0 | 0.01 | 0.01 | 0.01 | 52 | 1010.9 |
| 20260508160830 | 57 | 310 | 7.0 | 15.0 | 0.01 | 0.01 | 0.01 | 53 | 1011.0 |
| 20260508160648 | 58 | 241 | 5.0 | 14.0 | 0.01 | 0.01 | 0.01 | 53 | 1011.0 |
| 20260508160359 | 58 | 280 | 5.0 | 14.0 | 0.01 | 0.01 | 0.01 | 51 | 1011.0 |
| 20260508160135 | 58 | 239 | 8.0 | 14.0 | 0.01 | 0.01 | 0.01 | 51 | 1011.1 |
| 20260508155847 | 58 | 263 | 7.0 | 14.0 | 0.01 | 0.01 | 0.01 | 51 | 1011.0 |
| 20260508155645 | 58 | 230 | 6.0 | 17.0 | 0.01 | 0.01 | 0.01 | 52 | 1010.9 |
| 20260508155335 | 58 | 222 | 3.0 | 17.0 | 0.01 | 0.01 | 0.01 | 53 | 1010.9 |
| 20260508155133 | 58 | 207 | 5.0 | 17.0 | 0.01 | 0.01 | 0.01 | 50 | 1010.9 |
| 20260508154843 | 58 | 228 | 10.0 | 17.0 | 0.01 | 0.01 | 0.01 | 49 | 1011.1 |
| 20260508154642 | 58 | 224 | 6.0 | 15.0 | 0.01 | 0.01 | 0.01 | 53 | 1011.1 |
| 20260508154407 | 58 | 262 | 6.0 | 15.0 | 0.01 | 0.01 | 0.01 | 52 | 1011.1 |
| 20260508154209 | 57 | 316 | 4.0 | 15.0 | 0.01 | 0.01 | 0.01 | 53 | 1011.1 |
| 20260508153835 | 57 | 254 | 4.0 | 15.0 | 0.01 | 0.01 | 0.01 | 53 | 1011.1 |
| 20260508153638 | 57 | 7 | 5.0 | 15.0 | 0.01 | 0.01 | 0.01 | 53 | 1011.2 |
| 20260508153345 | 56 | 256 | 5.0 | 15.0 | 0.01 | 0.01 | 0.01 | 53 | 1011.2 |
| 20260508153146 | 57 | 253 | 7.0 | 16.0 | 0.01 | 0.01 | 0.01 | 51 | 1011.3 |
| 20260508152832 | 57 | 257 | 5.0 | 16.0 | 0.01 | 0.01 | 0.01 | 52 | 1011.3 |
| 20260508152633 | 57 | 239 | 8.0 | 16.0 | 0.01 | 0.01 | 0.01 | 50 | 1011.3 |
| 20260508152338 | 57 | 285 | 3.0 | 14.0 | 0.01 | 0.01 | 0.01 | 53 | 1011.3 |
| 20260508152140 | 57 | 243 | 3.0 | 14.0 | 0.01 | 0.01 | 0.01 | 51 | 1011.2 |
| 20260508151847 | 58 | 304 | 4.0 | 14.0 | 0.01 | 0.01 | 0.01 | 50 | 1011.2 |
| 20260508151648 | 58 | 324 | 6.0 | 14.0 | 0.01 | 0.01 | 0.01 | 50 | 1011.1 |
| 20260508151334 | 58 | 254 | 5.0 | 11.0 | 0.00 | 0.00 | 0.00 | 51 | 1011.2 |
| 20260508151135 | 58 | 235 | 4.0 | 12.0 | 0.00 | 0.00 | 0.00 | 51 | 1011.0 |
| 20260508150842 | 58 | 256 | 4.0 | 12.0 | 0.00 | 0.00 | 0.00 | 52 | 1011.0 |
| 20260508150641 | 58 | 331 | 3.0 | 12.0 | 0.00 | 0.00 | 0.00 | 51 | 1011.1 |
| 20260508150353 | 58 | 262 | 6.0 | 12.0 | 0.00 | 0.00 | 0.00 | 50 | 1011.0 |
| 20260508150150 | 58 | 221 | 3.0 | 6.0 | 0.00 | 0.00 | 0.00 | 49 | 1011.0 |
| 20260508145841 | 58 | 239 | 3.0 | 8.0 | 0.00 | 0.00 | 0.00 | 54 | 1011.0 |
| 20260508145639 | 58 | 260 | 1.0 | 13.0 | 0.00 | 0.00 | 0.00 | 55 | 1010.9 |
| 20260508145330 | 58 | 260 | 3.0 | 13.0 | 0.00 | 0.00 | 0.00 | 51 | 1011.0 |
| 20260508145147 | 58 | 235 | 4.0 | 13.0 | 0.00 | 0.00 | 0.00 | 53 | 1011.0 |
| 20260508144839 | 58 | 214 | 6.0 | 13.0 | 0.00 | 0.00 | 0.00 | 52 | 1011.0 |
| 20260508144637 | 58 | 215 | 4.0 | 9.0 | 0.00 | 0.00 | 0.00 | 52 | 1010.9 |
| 20260508144348 | 58 | 233 | 2.0 | 9.0 | 0.00 | 0.00 | 0.00 | 52 | 1010.9 |
| 20260508144145 | 57 | 244 | 3.0 | 9.0 | 0.00 | 0.00 | 0.00 | 53 | 1010.9 |
| 20260508143836 | 57 | 351 | 3.0 | 9.0 | 0.00 | 0.00 | 0.00 | 54 | 1010.9 |
| 20260508143634 | 57 | 356 | 2.0 | 5.0 | 0.00 | 0.00 | 0.00 | 55 | 1011.0 |
| 20260508143345 | 56 | 295 | 2.0 | 8.0 | 0.00 | 0.00 | 0.00 | 53 | 1011.0 |
| 20260508143143 | 56 | 245 | 1.0 | 8.0 | 0.00 | 0.00 | 0.00 | 54 | 1011.0 |
| 20260508142834 | 56 | 246 | 3.0 | 9.0 | 0.00 | 0.00 | 0.00 | 54 | 1011.1 |
| 20260508142633 | 55 | 284 | 5.0 | 9.0 | 0.00 | 0.00 | 0.00 | 54 | 1011.1 |
| 20260508142343 | 55 | 227 | 3.0 | 11.0 | 0.00 | 0.00 | 0.00 | 53 | 1011.1 |
| 20260508142140 | 56 | 228 | 5.0 | 11.0 | 0.00 | 0.00 | 0.00 | 53 | 1011.1 |
| 20260508141851 | 56 | 223 | 4.0 | 11.0 | 0.00 | 0.00 | 0.00 | 53 | 1011.1 |
| 20260508141647 | 56 | 218 | 6.0 | 11.0 | 0.00 | 0.00 | 0.00 | 54 | 1011.2 |
| 20260508141331 | 56 | 270 | 5.0 | 12.0 | 0.00 | 0.00 | 0.00 | 55 | 1011.2 |
| 20260508141133 | 56 | 235 | 7.0 | 12.0 | 0.00 | 0.00 | 0.00 | 53 | 1011.1 |
| 20260508140840 | 56 | 233 | 2.0 | 7.0 | 0.00 | 0.00 | 0.00 | 54 | 1011.2 |
| 20260508140645 | 56 | 279 | 2.0 | 7.0 | 0.00 | 0.00 | 0.00 | 55 | 1011.2 |
| 20260508140332 | 56 | 235 | 4.0 | 7.0 | 0.00 | 0.00 | 0.00 | 54 | 1011.3 |
| 20260508140134 | 56 | 299 | 1.0 | 6.0 | 0.00 | 0.00 | 0.00 | 57 | 1011.3 |
| 20260508135840 | 55 | 255 | 2.0 | 8.0 | 0.00 | 0.00 | 0.00 | 57 | 1011.4 |
| 20260508135703 | 55 | 356 | 1.0 | 8.0 | 0.00 | 0.00 | 0.00 | 58 | 1011.4 |
| 20260508135348 | 55 | 268 | 3.0 | 9.0 | 0.00 | 0.00 | 0.00 | 57 | 1011.5 |
| 20260508135149 | 55 | 356 | 3.0 | 9.0 | 0.00 | 0.00 | 0.00 | 56 | 1011.5 |
| 20260508134837 | 55 | 7 | 2.0 | 9.0 | 0.00 | 0.00 | 0.00 | 57 | 1011.5 |
| 20260508134638 | 55 | 21 | 3.0 | 9.0 | 0.00 | 0.00 | 0.00 | 58 | 1011.6 |
| 20260508134344 | 55 | 287 | 3.0 | 8.0 | 0.00 | 0.00 | 0.00 | 60 | 1011.5 |
| 20260508134143 | 55 | 20 | 3.0 | 8.0 | 0.00 | 0.00 | 0.00 | 59 | 1011.5 |
| 20260508133853 | 55 | 259 | 3.0 | 10.0 | 0.00 | 0.00 | 0.00 | 60 | 1011.4 |
| 20260508133649 | 55 | 339 | 3.0 | 10.0 | 0.00 | 0.00 | 0.00 | 61 | 1011.5 |
| 20260508133339 | 54 | 253 | 4.0 | 10.0 | 0.00 | 0.00 | 0.00 | 62 | 1011.5 |
| 20260508133138 | 54 | 225 | 3.0 | 8.0 | 0.00 | 0.00 | 0.00 | 63 | 1011.5 |
| 20260508132848 | 54 | 44 | 1.0 | 8.0 | 0.00 | 0.00 | 0.00 | 65 | 1011.4 |
| 20260508132645 | 54 | 70 | 2.0 | 8.0 | 0.00 | 0.00 | 0.00 | 63 | 1011.4 |
| 20260508132356 | 53 | 10 | 2.0 | 8.0 | 0.00 | 0.00 | 0.00 | 64 | 1011.4 |
| 20260508132133 | 53 | 237 | 4.0 | 8.0 | 0.00 | 0.00 | 0.00 | 63 | 1011.4 |
| 20260508131844 | 53 | 235 | 2.0 | 8.0 | 0.00 | 0.00 | 0.00 | 65 | 1011.3 |
| 20260508131642 | 53 | 351 | 4.0 | 8.0 | 0.00 | 0.00 | 0.00 | 65 | 1011.3 |
| 20260508131351 | 53 | 253 | 2.0 | 6.0 | 0.00 | 0.00 | 0.00 | 65 | 1011.4 |
| 20260508131210 | 53 | 247 | 3.0 | 6.0 | 0.00 | 0.00 | 0.00 | 66 | 1011.4 |
| 20260508130839 | 52 | 4 | 1.0 | 9.0 | 0.00 | 0.00 | 0.00 | 67 | 1011.4 |
| 20260508130636 | 52 | 356 | 1.0 | 9.0 | 0.00 | 0.00 | 0.00 | 68 | 1011.4 |
| 20260508130344 | 52 | 356 | 4.0 | 9.0 | 0.00 | 0.00 | 0.00 | 67 | 1011.5 |
| 20260508130147 | 52 | 6 | 5.0 | 9.0 | 0.00 | 0.00 | 0.00 | 67 | 1011.5 |
| 20260508125855 | 52 | 335 | 3.0 | 10.0 | 0.00 | 0.00 | 0.00 | 67 | 1011.6 |
| 20260508125656 | 52 | 2 | 2.0 | 12.0 | 0.00 | 0.00 | 0.00 | 69 | 1011.5 |
| 20260508125342 | 52 | 10 | 5.0 | 12.0 | 0.00 | 0.00 | 0.00 | 68 | 1011.5 |
| 20260508125143 | 52 | 15 | 5.0 | 12.0 | 0.00 | 0.00 | 0.00 | 67 | 1011.5 |
| 20260508124849 | 52 | 356 | 4.0 | 12.0 | 0.00 | 0.00 | 0.00 | 68 | 1011.6 |
| 20260508124630 | 52 | 356 | 2.0 | 10.0 | 0.00 | 0.00 | 0.00 | 69 | 1011.6 |
| 20260508124336 | 51 | 319 | 2.0 | 10.0 | 0.00 | 0.00 | 0.00 | 69 | 1011.6 |
| 20260508124154 | 51 | 360 | 4.0 | 10.0 | 0.00 | 0.00 | 0.00 | 69 | 1011.7 |
| 20260508123845 | 51 | 14 | 2.0 | 9.0 | 0.00 | 0.00 | 0.00 | 71 | 1011.6 |
| 20260508123644 | 51 | 10 | 2.0 | 9.0 | 0.00 | 0.00 | 0.00 | 72 | 1011.6 |
| 20260508123334 | 51 | 6 | 3.0 | 10.0 | 0.00 | 0.00 | 0.00 | 73 | 1011.7 |
| 20260508123132 | 51 | 324 | 2.0 | 11.0 | 0.00 | 0.00 | 0.00 | 73 | 1011.7 |
| 20260508122843 | 51 | 356 | 2.0 | 11.0 | 0.00 | 0.00 | 0.00 | 72 | 1011.7 |
| 20260508122642 | 51 | 6 | 6.0 | 11.0 | 0.00 | 0.00 | 0.00 | 72 | 1011.6 |
| 20260508122332 | 51 | 8 | 5.0 | 11.0 | 0.00 | 0.00 | 0.00 | 71 | 1011.7 |
| 20260508122150 | 51 | 351 | 5.0 | 10.0 | 0.00 | 0.00 | 0.00 | 71 | 1011.7 |
| 20260508121901 | 50 | 338 | 1.0 | 8.0 | 0.00 | 0.00 | 0.00 | 72 | 1011.6 |
| 20260508121658 | 50 | 17 | 2.0 | 8.0 | 0.00 | 0.00 | 0.00 | 72 | 1011.6 |
| 20260508121346 | 50 | 12 | 4.0 | 10.0 | 0.00 | 0.00 | 0.00 | 72 | 1011.6 |
| 20260508121206 | 50 | 351 | 2.0 | 10.0 | 0.00 | 0.00 | 0.00 | 71 | 1011.6 |
| 20260508120835 | 50 | 267 | 2.0 | 10.0 | 0.00 | 0.00 | 0.00 | 73 | 1011.7 |
| 20260508120634 | 50 | 239 | 3.0 | 10.0 | 0.00 | 0.00 | 0.00 | 74 | 1011.7 |
| 20260508120341 | 50 | 351 | 2.0 | 6.0 | 0.00 | 0.00 | 0.00 | 75 | 1011.7 |
| 20260508120203 | 50 | 322 | 3.0 | 6.0 | 0.00 | 0.00 | 0.00 | 75 | 1011.7 |
| 20260508115849 | 49 | 323 | 2.0 | 9.0 | 0.00 | 0.00 | 0.00 | 77 | 1011.6 |
| 20260508115631 | 49 | 7 | 2.0 | 9.0 | 0.00 | 0.00 | 0.00 | 78 | 1011.6 |
| 20260508115358 | 49 | 8 | 2.0 | 9.0 | 0.00 | 0.00 | 0.00 | 78 | 1011.6 |
| 20260508115139 | 49 | 11 | 3.0 | 9.0 | 0.00 | 0.00 | 0.00 | 79 | 1011.5 |
| 20260508114847 | 48 | 4 | 3.0 | 6.0 | 0.00 | 0.00 | 0.00 | 80 | 1011.5 |
| 20260508114649 | 48 | 264 | 2.0 | 6.0 | 0.00 | 0.00 | 0.00 | 81 | 1011.5 |
| 20260508114334 | 48 | 156 | 2.0 | 8.0 | 0.00 | 0.00 | 0.00 | 83 | 1011.6 |
| 20260508114138 | 48 | 190 | 2.0 | 8.0 | 0.00 | 0.00 | 0.00 | 83 | 1011.6 |
| 20260508113843 | 47 | 220 | 3.0 | 8.0 | 0.00 | 0.00 | 0.00 | 84 | 1011.6 |
| 20260508113642 | 47 | 300 | 1.0 | 2.0 | 0.00 | 0.00 | 0.00 | 86 | 1011.6 |
| 20260508113333 | 47 | 300 | 1.0 | 2.0 | 0.00 | 0.00 | 0.00 | 86 | 1011.5 |
| 20260508113151 | 47 | 300 | 1.0 | 2.0 | 0.00 | 0.00 | 0.00 | 86 | 1011.6 |
| 20260508112901 | 46 | 300 | 1.0 | 2.0 | 0.00 | 0.00 | 0.00 | 87 | 1011.4 |
| 20260508112637 | 46 | 300 | 2.0 | 2.0 | 0.00 | 0.00 | 0.00 | 87 | 1011.5 |
| 20260508112348 | 46 | 300 | 1.0 | 3.0 | 0.00 | 0.00 | 0.00 | 87 | 1011.4 |
| 20260508112145 | 46 | 300 | 0.0 | 3.0 | 0.00 | 0.00 | 0.00 | 87 | 1011.5 |
| 20260508111837 | 46 | 300 | 1.0 | 3.0 | 0.00 | 0.00 | 0.00 | 87 | 1011.3 |
| 20260508111635 | 46 | 300 | 2.0 | 3.0 | 0.00 | 0.00 | 0.00 | 87 | 1011.3 |
| 20260508111344 | 46 | 300 | 1.0 | 3.0 | 0.00 | 0.00 | 0.00 | 88 | 1011.3 |
| 20260508111143 | 46 | 300 | 2.0 | 3.0 | 0.00 | 0.00 | 0.00 | 88 | 1011.3 |
| 20260508110833 | 45 | 300 | 1.0 | 3.0 | 0.00 | 0.00 | 0.00 | 88 | 1011.4 |
| 20260508110631 | 45 | 300 | 1.0 | 3.0 | 0.00 | 0.00 | 0.00 | 88 | 1011.4 |
| 20260508110409 | 45 | 300 | 1.0 | 3.0 | 0.00 | 0.00 | 0.00 | 88 | 1011.4 |
| 20260508110144 | 45 | 300 | 2.0 | 3.0 | 0.00 | 0.00 | 0.00 | 88 | 1011.4 |
| 20260508105834 | 45 | 300 | 2.0 | 3.0 | 0.00 | 0.00 | 0.00 | 88 | 1011.3 |
| 20260508105633 | 45 | 300 | 2.0 | 3.0 | 0.00 | 0.00 | 0.00 | 88 | 1011.3 |
| 20260508105344 | 45 | 300 | 0.0 | 3.0 | 0.00 | 0.00 | 0.00 | 88 | 1011.3 |
| 20260508105141 | 45 | 300 | 1.0 | 3.0 | 0.00 | 0.00 | 0.00 | 89 | 1011.3 |
| 20260508104832 | 45 | 300 | 1.0 | 3.0 | 0.00 | 0.00 | 0.00 | 89 | 1011.2 |
| 20260508104649 | 45 | 300 | 1.0 | 3.0 | 0.00 | 0.00 | 0.00 | 89 | 1011.2 |
| 20260508104416 | 45 | 299 | 1.0 | 3.0 | 0.00 | 0.00 | 0.00 | 90 | 1011.2 |
| 20260508104130 | 44 | 300 | 1.0 | 3.0 | 0.00 | 0.00 | 0.00 | 90 | 1011.3 |
| 20260508103837 | 44 | 324 | 1.0 | 3.0 | 0.00 | 0.00 | 0.00 | 90 | 1011.2 |
| 20260508103638 | 44 | 324 | 0.0 | 3.0 | 0.00 | 0.00 | 0.00 | 91 | 1011.3 |
| 20260508103346 | 44 | 324 | 1.0 | 3.0 | 0.00 | 0.00 | 0.00 | 91 | 1011.2 |
| 20260508103149 | 44 | 324 | 2.0 | 3.0 | 0.00 | 0.00 | 0.00 | 91 | 1011.2 |
| 20260508102856 | 44 | 324 | 0.0 | 3.0 | 0.00 | 0.00 | 0.00 | 91 | 1011.1 |
| 20260508102654 | 44 | 324 | 1.0 | 4.0 | 0.00 | 0.00 | 0.00 | 90 | 1011.1 |
| 20260508102344 | 44 | 324 | 1.0 | 4.0 | 0.00 | 0.00 | 0.00 | 90 | 1011.0 |
| 20260508102143 | 44 | 324 | 2.0 | 4.0 | 0.00 | 0.00 | 0.00 | 90 | 1011.0 |
| 20260508101853 | 43 | 324 | 2.0 | 4.0 | 0.00 | 0.00 | 0.00 | 90 | 1010.9 |
| 20260508101631 | 43 | 322 | 2.0 | 3.0 | 0.00 | 0.00 | 0.00 | 90 | 1010.9 |
| 20260508101339 | 43 | 322 | 2.0 | 3.0 | 0.00 | 0.00 | 0.00 | 89 | 1010.8 |
| 20260508101136 | 43 | 322 | 2.0 | 3.0 | 0.00 | 0.00 | 0.00 | 89 | 1010.9 |
| 20260508100846 | 43 | 322 | 1.0 | 3.0 | 0.00 | 0.00 | 0.00 | 89 | 1010.8 |
| 20260508100644 | 43 | 322 | 2.0 | 3.0 | 0.00 | 0.00 | 0.00 | 89 | 1010.8 |
| 20260508100354 | 43 | 322 | 1.0 | 3.0 | 0.00 | 0.00 | 0.00 | 89 | 1010.8 |
| 20260508100130 | 43 | 322 | 2.0 | 3.0 | 0.00 | 0.00 | 0.00 | 89 | 1010.7 |
| 20260508095840 | 43 | 322 | 2.0 | 3.0 | 0.00 | 0.00 | 0.00 | 88 | 1010.7 |
| 20260508095637 | 43 | 335 | 0.0 | 1.0 | 0.00 | 0.00 | 0.00 | 88 | 1010.7 |
| 20260508095348 | 43 | 335 | 0.0 | 1.0 | 0.00 | 0.00 | 0.00 | 88 | 1010.6 |
| 20260508095145 | 43 | 335 | 0.0 | 1.0 | 0.00 | 0.00 | 0.00 | 88 | 1010.7 |
| 20260508094834 | 44 | 335 | 0.0 | 1.0 | 0.00 | 0.00 | 0.00 | 87 | 1010.7 |
| 20260508094633 | 44 | 335 | 0.0 | 1.0 | 0.00 | 0.00 | 0.00 | 87 | 1010.7 |
| 20260508094339 | 44 | 335 | 0.0 | 1.0 | 0.00 | 0.00 | 0.00 | 87 | 1010.7 |
| 20260508094141 | 44 | 335 | 0.0 | 1.0 | 0.00 | 0.00 | 0.00 | 87 | 1010.7 |
| 20260508093848 | 44 | 335 | 0.0 | 1.0 | 0.00 | 0.00 | 0.00 | 87 | 1010.7 |
| 20260508093649 | 44 | 335 | 0.0 | 1.0 | 0.00 | 0.00 | 0.00 | 87 | 1010.6 |
| 20260508093355 | 44 | 335 | 1.0 | 2.0 | 0.00 | 0.00 | 0.00 | 87 | 1010.6 |
| 20260508093130 | 44 | 335 | 0.0 | 2.0 | 0.00 | 0.00 | 0.00 | 87 | 1010.6 |
| 20260508092837 | 44 | 335 | 0.0 | 2.0 | 0.00 | 0.00 | 0.00 | 87 | 1010.6 |
| 20260508092659 | 44 | 335 | 1.0 | 2.0 | 0.00 | 0.00 | 0.00 | 87 | 1010.6 |
| 20260508092345 | 44 | 335 | 1.0 | 2.0 | 0.00 | 0.00 | 0.00 | 87 | 1010.6 |
| 20260508092147 | 45 | 335 | 0.0 | 3.0 | 0.00 | 0.00 | 0.00 | 87 | 1010.6 |
| 20260508091836 | 45 | 335 | 0.0 | 3.0 | 0.00 | 0.00 | 0.00 | 87 | 1010.6 |
| 20260508091638 | 45 | 335 | 1.0 | 3.0 | 0.00 | 0.00 | 0.00 | 87 | 1010.5 |
| 20260508091343 | 45 | 335 | 0.0 | 2.0 | 0.00 | 0.00 | 0.00 | 87 | 1010.5 |
| 20260508091141 | 45 | 335 | 1.0 | 2.0 | 0.00 | 0.00 | 0.00 | 88 | 1010.6 |
| 20260508090833 | 45 | 335 | 1.0 | 3.0 | 0.00 | 0.00 | 0.00 | 87 | 1010.5 |
| 20260508090630 | 45 | 335 | 1.0 | 3.0 | 0.00 | 0.00 | 0.00 | 87 | 1010.6 |
| 20260508090409 | 45 | 335 | 1.0 | 3.0 | 0.00 | 0.00 | 0.00 | 87 | 1010.6 |
| 20260508090208 | 45 | 335 | 1.0 | 3.0 | 0.00 | 0.00 | 0.00 | 87 | 1010.5 |
| 20260508085838 | 45 | 356 | 0.0 | 2.0 | 0.00 | 0.00 | 0.00 | 87 | 1010.5 |
| 20260508085635 | 45 | 356 | 0.0 | 2.0 | 0.00 | 0.00 | 0.00 | 87 | 1010.4 |
| 20260508085345 | 45 | 356 | 0.0 | 2.0 | 0.00 | 0.00 | 0.00 | 87 | 1010.4 |
| 20260508085143 | 45 | 356 | 0.0 | 2.0 | 0.00 | 0.00 | 0.00 | 87 | 1010.4 |
| 20260508084835 | 46 | 356 | 0.0 | 1.0 | 0.00 | 0.00 | 0.00 | 87 | 1010.4 |
| 20260508084631 | 46 | 356 | 0.0 | 1.0 | 0.00 | 0.00 | 0.00 | 87 | 1010.4 |
| 20260508084342 | 46 | 356 | 0.0 | 1.0 | 0.00 | 0.00 | 0.00 | 87 | 1010.4 |
| 20260508084139 | 46 | 356 | 0.0 | 0.0 | 0.00 | 0.00 | 0.00 | 87 | 1010.3 |
| 20260508083848 | 46 | 356 | 0.0 | 0.0 | 0.00 | 0.00 | 0.00 | 87 | 1010.3 |
| 20260508083644 | 46 | 356 | 0.0 | 0.0 | 0.00 | 0.00 | 0.00 | 86 | 1010.3 |
| 20260508083338 | 46 | 356 | 0.0 | 1.0 | 0.00 | 0.00 | 0.00 | 86 | 1010.3 |
| 20260508083135 | 46 | 356 | 0.0 | 1.0 | 0.00 | 0.00 | 0.00 | 86 | 1010.3 |
| 20260508082846 | 46 | 356 | 0.0 | 1.0 | 0.00 | 0.00 | 0.00 | 86 | 1010.3 |
| 20260508082644 | 46 | 356 | 0.0 | 1.0 | 0.00 | 0.00 | 0.00 | 86 | 1010.3 |
| 20260508082335 | 46 | 356 | 0.0 | 1.0 | 0.00 | 0.00 | 0.00 | 86 | 1010.4 |
| 20260508082133 | 46 | 356 | 0.0 | 1.0 | 0.00 | 0.00 | 0.00 | 86 | 1010.3 |
| 20260508081840 | 46 | 356 | 0.0 | 2.0 | 0.00 | 0.00 | 0.00 | 86 | 1010.2 |
| 20260508081641 | 46 | 356 | 0.0 | 2.0 | 0.00 | 0.00 | 0.00 | 86 | 1010.3 |
| 20260508081346 | 46 | 356 | 1.0 | 2.0 | 0.00 | 0.00 | 0.00 | 86 | 1010.1 |
| 20260508081148 | 46 | 356 | 0.0 | 2.0 | 0.00 | 0.00 | 0.00 | 86 | 1010.1 |
| 20260508080835 | 46 | 356 | 1.0 | 2.0 | 0.00 | 0.00 | 0.00 | 86 | 1010.1 |
| 20260508080658 | 46 | 356 | 0.0 | 2.0 | 0.00 | 0.00 | 0.00 | 86 | 1010.2 |
| 20260508080343 | 46 | 356 | 0.0 | 3.0 | 0.00 | 0.00 | 0.00 | 86 | 1010.3 |
| 20260508080146 | 46 | 356 | 0.0 | 3.0 | 0.00 | 0.00 | 0.00 | 86 | 1010.4 |
| 20260508075847 | 46 | 356 | 0.0 | 4.0 | 0.00 | 0.00 | 0.00 | 86 | 1010.3 |
| 20260508075648 | 46 | 356 | 1.0 | 4.0 | 0.00 | 0.00 | 0.00 | 86 | 1010.3 |
| 20260508075355 | 46 | 360 | 1.0 | 4.0 | 0.00 | 0.00 | 0.00 | 86 | 1010.3 |